| time (UTC) | temp F | wind direction | speed knots | gust knots | rain 1hr in | rain 24hr in | rain mn in | humidity % | barometer mb |
| 20260506190028 | 57 | 202 | 3.5 | 9.6 | 0.01 | 0.01 | 0.01 | 90 | 1008.5 |
| 20260506184531 | 56 | 224 | 4.3 | 8.7 | 0.01 | 0.01 | 0.01 | 90 | 1008.7 |
| 20260506183028 | 56 | 200 | 3.5 | 10.4 | 0.01 | 0.01 | 0.01 | 90 | 1008.9 |
| 20260506181534 | 56 | 190 | 3.5 | 9.6 | 0.01 | 0.01 | 0.01 | 91 | 1009.2 |
| 20260506180034 | 56 | 207 | 3.5 | 7.8 | 0.00 | 0.00 | 0.00 | 90 | 1009.4 |
| 20260506174532 | 56 | 246 | 4.3 | 9.6 | 0.00 | 0.00 | 0.00 | 90 | 1009.6 |
| 20260506173028 | 57 | 241 | 4.3 | 10.4 | 0.00 | 0.00 | 0.00 | 89 | 1009.9 |
| 20260506171547 | 57 | 240 | 3.5 | 8.7 | 0.00 | 0.00 | 0.00 | 88 | 1010.0 |
| 20260506170036 | 57 | 250 | 4.3 | 9.6 | 0.00 | 0.00 | 0.00 | 86 | 1010.1 |
| 20260506164533 | 58 | 255 | 5.2 | 10.4 | 0.00 | 0.00 | 0.00 | 86 | 1010.1 |
| 20260506163030 | 58 | 182 | 4.3 | 11.3 | 0.00 | 0.00 | 0.00 | 86 | 1010.1 |
| 20260506161529 | 58 | 270 | 4.3 | 10.4 | 0.00 | 0.00 | 0.00 | 85 | 1010.4 |
| 20260506160032 | 58 | 202 | 4.3 | 11.3 | 0.00 | 0.00 | 0.00 | 84 | 1010.6 |
| 20260506154532 | 59 | 200 | 3.5 | 13.0 | 0.00 | 0.00 | 0.00 | 84 | 1010.8 |
| 20260506153032 | 59 | 244 | 3.5 | 11.3 | 0.00 | 0.00 | 0.00 | 84 | 1010.9 |
| 20260506151535 | 59 | 188 | 4.3 | 10.4 | 0.00 | 0.00 | 0.00 | 84 | 1010.6 |
| 20260506150030 | 59 | 221 | 2.6 | 7.0 | 0.00 | 0.00 | 0.00 | 84 | 1010.9 |
| 20260506144528 | 59 | 261 | 3.5 | 10.4 | 0.00 | 0.00 | 0.00 | 83 | 1011.2 |
| 20260506143028 | 60 | 182 | 4.3 | 10.4 | 0.00 | 0.00 | 0.00 | 83 | 1011.1 |
| 20260506141529 | 59 | 220 | 2.6 | 10.4 | 0.00 | 0.00 | 0.00 | 84 | 1011.3 |
| 20260506140030 | 59 | 210 | 3.5 | 10.4 | 0.00 | 0.00 | 0.00 | 85 | 1011.6 |
| 20260506134531 | 58 | 259 | 5.2 | 9.6 | 0.00 | 0.00 | 0.00 | 85 | 1011.5 |
| 20260506133043 | 58 | 218 | 4.3 | 9.6 | 0.00 | 0.00 | 0.00 | 86 | 1011.4 |
| 20260506131532 | 57 | 215 | 3.5 | 9.6 | 0.00 | 0.00 | 0.00 | 86 | 1011.2 |
| 20260506130028 | 58 | 174 | 4.3 | 11.3 | 0.00 | 0.00 | 0.00 | 86 | 1011.4 |
| 20260506124531 | 58 | 242 | 4.3 | 8.7 | 0.00 | 0.00 | 0.00 | 87 | 1011.5 |
| 20260506123031 | 57 | 188 | 5.2 | 12.2 | 0.00 | 0.00 | 0.00 | 87 | 1011.5 |
| 20260506121530 | 57 | 207 | 4.3 | 12.2 | 0.00 | 0.00 | 0.00 | 87 | 1011.4 |
| 20260506120036 | 57 | 137 | 2.6 | 8.7 | 0.00 | 0.00 | 0.00 | 89 | 1011.3 |
| 20260506114529 | 57 | 205 | 5.2 | 12.2 | 0.00 | 0.00 | 0.00 | 90 | 1011.3 |
| 20260506113035 | 56 | 238 | 3.5 | 9.6 | 0.00 | 0.00 | 0.00 | 90 | 1011.4 |
| 20260506111531 | 56 | 202 | 2.6 | 10.4 | 0.00 | 0.00 | 0.00 | 90 | 1011.5 |
| 20260506110034 | 56 | 234 | 3.5 | 13.0 | 0.00 | 0.00 | 0.00 | 90 | 1011.4 |
| 20260506104528 | 56 | 225 | 3.5 | 7.8 | 0.00 | 0.00 | 0.00 | 91 | 1011.4 |
| 20260506103036 | 55 | 195 | 3.5 | 9.6 | 0.00 | 0.00 | 0.00 | 91 | 1011.2 |
| 20260506101539 | 55 | 194 | 4.3 | 11.3 | 0.00 | 0.00 | 0.00 | 91 | 1011.3 |
| 20260506100033 | 55 | 233 | 3.5 | 9.6 | 0.00 | 0.00 | 0.00 | 91 | 1011.2 |
| 20260506094529 | 56 | 179 | 3.5 | 10.4 | 0.00 | 0.00 | 0.00 | 91 | 1011.2 |
| 20260506093028 | 56 | 165 | 3.5 | 10.4 | 0.00 | 0.00 | 0.00 | 91 | 1011.0 |
| 20260506091528 | 56 | 244 | 3.5 | 9.6 | 0.00 | 0.00 | 0.00 | 90 | 1011.1 |
| 20260506090030 | 56 | 250 | 2.6 | 9.6 | 0.00 | 0.00 | 0.00 | 91 | 1011.2 |
| 20260506084535 | 56 | 254 | 4.3 | 11.3 | 0.00 | 0.00 | 0.00 | 91 | 1011.5 |
| 20260506083033 | 56 | 190 | 3.5 | 12.2 | 0.00 | 0.00 | 0.00 | 91 | 1011.5 |
| 20260506081530 | 56 | 209 | 4.3 | 11.3 | 0.00 | 0.00 | 0.00 | 90 | 1011.6 |
| 20260506073030 | 57 | 245 | 1.7 | 9.6 | 0.00 | 0.00 | 0.00 | 89 | 1012.1 |
| 20260506071530 | 57 | 254 | 5.2 | 10.4 | 0.00 | 0.00 | 0.00 | 88 | 1011.9 |
| 20260506061529 | 57 | 230 | 3.5 | 7.8 | 0.00 | 0.00 | 0.00 | 88 | 1011.7 |
| 20260506044530 | 57 | 227 | 3.5 | 9.6 | 0.00 | 0.00 | 0.00 | 87 | 1012.0 |
| 20260506043030 | 57 | 236 | 3.5 | 10.4 | 0.00 | 0.00 | 0.00 | 87 | 1012.2 |
| 20260506041530 | 57 | 215 | 4.3 | 16.5 | 0.00 | 0.00 | 0.00 | 87 | 1012.2 |
| 20260506040037 | 57 | 213 | 2.6 | 10.4 | 0.00 | 0.00 | 0.00 | 87 | 1012.3 |
| 20260506034529 | 57 | 238 | 3.5 | 10.4 | 0.00 | 0.00 | 0.00 | 87 | 1012.6 |
| 20260506033034 | 56 | 233 | 1.7 | 8.7 | 0.00 | 0.00 | 0.00 | 87 | 1012.5 |
| 20260506031528 | 56 | 0 | 0.9 | 8.7 | 0.00 | 0.00 | 0.00 | 87 | 1012.5 |
| 20260506030030 | 56 | 233 | 3.5 | 10.4 | 0.00 | 0.00 | 0.00 | 87 | 1012.6 |
| 20260506024530 | 56 | 271 | 2.6 | 7.0 | 0.00 | 0.00 | 0.00 | 86 | 1012.6 |
| 20260506023031 | 57 | 243 | 0.9 | 7.8 | 0.00 | 0.00 | 0.00 | 85 | 1012.6 |
| 20260506021534 | 57 | 244 | 3.5 | 9.6 | 0.00 | 0.00 | 0.00 | 85 | 1012.3 |
| 20260506020033 | 57 | 227 | 3.5 | 9.6 | 0.00 | 0.00 | 0.00 | 84 | 1012.3 |
| 20260506014529 | 57 | 257 | 4.3 | 10.4 | 0.00 | 0.00 | 0.00 | 84 | 1012.2 |
| 20260506013028 | 57 | 234 | 4.3 | 8.7 | 0.00 | 0.00 | 0.00 | 84 | 1012.1 |
| 20260506011531 | 57 | 240 | 4.3 | 8.7 | 0.00 | 0.00 | 0.00 | 83 | 1011.9 |
| 20260506010044 | 57 | 227 | 3.5 | 10.4 | 0.00 | 0.00 | 0.00 | 82 | 1011.7 |
| 20260506004528 | 58 | 217 | 4.3 | 13.0 | 0.00 | 0.00 | 0.00 | 81 | 1011.4 |
| 20260506003030 | 58 | 223 | 4.3 | 13.9 | 0.00 | 0.00 | 0.00 | 81 | 1011.3 |
| 20260506001528 | 58 | 227 | 7.0 | 13.0 | 0.00 | 0.00 | 0.00 | 81 | 1011.1 |
| 20260506000028 | 58 | 200 | 5.2 | 13.9 | 0.00 | 0.00 | 0.00 | 81 | 1010.9 |
| 20260505234539 | 58 | 217 | 5.2 | 12.2 | 0.00 | 0.00 | 0.00 | 81 | 1010.6 |
| 20260505233035 | 58 | 260 | 5.2 | 13.0 | 0.00 | 0.00 | 0.00 | 81 | 1010.4 |
| 20260505231531 | 58 | 250 | 6.1 | 13.0 | 0.00 | 0.00 | 0.00 | 80 | 1010.3 |
| 20260505230029 | 59 | 229 | 5.2 | 14.8 | 0.00 | 0.00 | 0.00 | 80 | 1010.0 |
| 20260505224533 | 59 | 244 | 5.2 | 13.0 | 0.00 | 0.00 | 0.00 | 80 | 1010.0 |
| 20260505223028 | 59 | 234 | 6.1 | 12.2 | 0.00 | 0.00 | 0.00 | 80 | 1009.9 |
| 20260505221529 | 59 | 205 | 6.1 | 15.6 | 0.00 | 0.00 | 0.00 | 80 | 1009.9 |
| 20260505220031 | 59 | 221 | 5.2 | 14.8 | 0.00 | 0.00 | 0.00 | 79 | 1009.8 |
| 20260505214556 | 59 | 200 | 5.2 | 13.0 | 0.00 | 0.00 | 0.00 | 79 | 1009.5 |
| 20260505213030 | 60 | 180 | 5.2 | 11.3 | 0.00 | 0.00 | 0.00 | 78 | 1009.5 |
| 20260505211531 | 60 | 199 | 5.2 | 13.0 | 0.00 | 0.00 | 0.00 | 77 | 1009.3 |
| 20260505210030 | 60 | 221 | 4.3 | 15.6 | 0.00 | 0.00 | 0.00 | 77 | 1009.2 |
| 20260505204529 | 60 | 247 | 4.3 | 12.2 | 0.00 | 0.00 | 0.00 | 77 | 1009.3 |
| 20260505203036 | 61 | 189 | 4.3 | 11.3 | 0.00 | 0.00 | 0.00 | 76 | 1009.5 |
| 20260505201536 | 61 | 168 | 4.3 | 9.6 | 0.00 | 0.00 | 0.00 | 76 | 1009.4 |
| 20260505200027 | 61 | 260 | 4.3 | 10.4 | 0.00 | 0.00 | 0.00 | 76 | 1009.6 |
| 20260505194531 | 61 | 178 | 3.5 | 10.4 | 0.00 | 0.00 | 0.00 | 76 | 1010.0 |
| 20260505193031 | 61 | 229 | 4.3 | 14.8 | 0.00 | 0.00 | 0.00 | 77 | 1010.2 |
| 20260505191529 | 61 | 230 | 2.6 | 13.0 | 0.00 | 0.00 | 0.00 | 76 | 1010.7 |